This demonstration page uses our WeatherBlox Daily Observations layout. Learn more.

Left ArrowRight Arrow

Hourly Observations for June 29, 2018

Temp ( °F °C ) Dew Point ( °F °C ) Humidity (%) Winds ( mph kmh ) Pressure ( in mb ) Visibility ( mi km ) Precip ( " mm )
12:53 am 00:53 Clear 82 27.8 65 18.3 56 56 S 10 17 29.67 1005 10 16 0.00 0.00
1:53 am 01:53 Clear 82 27.8 66 18.9 58 58 S 15 24 29.67 1005 10 16 0.00 0.00
2:53 am 02:53 Clear 81 27.2 68 20 65 65 S 14 22 29.67 1005 10 16 0.00 0.00
3:53 am 03:53 Clear 79 26.1 69 20.6 72 72 S 16 26 29.67 1005 10 16 0.00 0.00
4:53 am 04:53 Clear 78 25.6 69 20.6 74 74 S 12 19 29.66 1004 10 16 0.00 0.00
5:53 am 05:53 Clear 78 25.6 67 19.4 69 69 S 14 22 29.66 1004 10 16 0.00 0.00
6:53 am 06:53 Sunny 77 25 66 18.9 69 69 S 13 20 29.67 1005 10 16 0.00 0.00
7:53 am 07:53 Sunny 78 25.6 66 18.9 67 67 S 14 22 29.67 1005 10 16 0.00 0.00
8:53 am 08:53 Sunny 80 26.7 66 18.9 62 62 S 13 20 29.67 1005 10 16 0.00 0.00
9:53 am 09:53 Sunny 82 27.8 66 18.9 58 58 S 14 22 29.65 1004 10 16 0.00 0.00
10:53 am 10:53 Sunny 86 30 68 20 55 55 S 15 24 29.65 1004 10 16 0.00 0.00
11:53 am 11:53 Sunny 90 32.2 69 20.6 50 50 S 17 28 29.64 1004 10 16 0.00 0.00
12:53 pm 12:53 Sunny 93 33.9 68 20 44 44 S 20 31 29.62 1003 10 16 0.00 0.00
1:53 pm 13:53 Sunny 95 35 68 20 41 41 S 17 28 29.62 1003 10 16 0.00 0.00
2:53 pm 14:53 Sunny 95 35 68 20 41 41 S 16 26 29.61 1003 10 16 0.00 0.00
3:53 pm 15:53 Sunny 95 35 67 19.4 40 40 S 17 28 29.61 1003 10 16 0.00 0.00
4:53 pm 16:53 Sunny 94 34.4 66 18.9 40 40 SSW 15 24 29.62 1003 10 16 0.00 0.00
5:53 pm 17:53 Sunny 94 34.4 69 20.6 44 44 S 13 20 29.62 1003 10 16 0.00 0.00
6:53 pm 18:53 Sunny 91 32.8 69 20.6 49 49 S 8 13 29.63 1003 10 16 0.00 0.00
7:53 pm 19:53 Sunny 87 30.6 69 20.6 55 55 S 12 19 29.65 1004 10 16 0.00 0.00
8:53 pm 20:53 Sunny 85 29.4 67 19.4 55 55 S 10 17 29.66 1004 10 16 0.00 0.00
9:53 pm 21:53 Clear 83 28.3 67 19.4 59 59 S 8 13 29.68 1005 10 16 0.00 0.00
10:53 pm 22:53 Clear 83 28.3 66 18.9 57 57 S 9 15 29.70 1006 10 16 0.00 0.00
11:53 pm 23:53 Clear 82 27.8 68 20 63 63 S 8 13 29.71 1006 10 16 0.00 0.00

Powered by AerisWeather